1485774000.66,27625,12.0,73462.0,0.73,-36.67,-37.03,0,*4E
1485774001.89,27626,12.0,73466.5,0.77,-36.25,-36.43,0,*4A
1485774003.08,27627,11.94,73470.8,0.73,-36.67,-37.03,0,*4C
1485774004.29,27628,12.0,73480.0,0.73,-36.73,-37.09,0,*4C
1485774005.51,27629,12.0,73474.8,0.73,-36.55,-36.91,0,*49
1485774006.72,27630,12.0,73472.8,0.73,-36.73,-37.09,0,*45
1485774007.91,27631,11.94,73474.0,0.73,-36.43,-36.73,0,*4B
1485774009.16,27632,12.0,73470.0,0.73,-35.95,-36.25,0,*43
1485774010.38,27633,11.94,73470.8,0.73,-37.27,-37.63,0,*4A
1485774011.6,27634,12.0,73470.8,0.69,-37.15,-37.63,0,*47
1485774012.79,27635,12.0,73466.8,0.69,-36.97,-37.33,0,*48
1485774014.05,27636,12.0,73470.0,0.67,-37.39,-37.69,0,*4F
1485774015.29,27637,12.0,73474.0,0.67,-37.51,-37.75,0,*4D
1485774016.51,27638,12.0,73470.8,0.65,-37.39,-37.75,0,*4E
1485774017.76,27639,12.0,73468.5,0.63,-37.21,-37.57,0,*40
1485774019.0,27640,11.94,73466.3,0.63,-37.57,-37.81,0,*44
1485774020.21,27641,12.0,73468.5,0.65,-37.51,-37.87,0,*43
1485774021.42,27642,12.0,73464.0,0.65,-37.33,-37.69,0,*44
1485774022.64,27643,12.0,73464.0,0.63,-38.05,-38.43,0,*4E
1485774023.83,27644,11.94,73464.8,0.61,-37.27,-37.75,0,*4E
1485774025.07,27645,12.0,73468.0,0.59,-37.27,-37.69,0,*49
1485774026.3,27646,12.0,73468.5,0.59,-36.91,-37.27,0,*4C
1485774027.55,27647,11.94,73460.0,0.59,-37.15,-37.51,0,*41
1485774028.79,27648,12.0,73462.3,0.59,-37.27,-37.63,0,*4E
1485774030.03,27649,12.0,73468.0,0.59,-36.91,-37.33,0,*46
1485774031.25,27650,12.0,73470.3,0.61,-37.27,-37.63,0,*4C
1485774032.47,27651,11.94,73468.3,0.57,-37.51,-37.87,0,*43
1485774033.68,27652,12.0,73466.5,0.55,-37.33,-37.75,0,*4B
1485774034.9,27653,12.0,73468.5,0.55,-36.97,-37.33,0,*47
1485774036.09,27654,12.0,73468.8,0.57,-37.15,-37.57,0,*4B
1485774037.33,27655,12.0,73468.8,0.53,-37.63,-37.99,0,*4D
1485774038.6,27656,12.0,73462.3,0.51,-37.39,-37.81,0,*4A
1485774039.84,27657,12.0,73460.0,0.53,-37.39,-37.81,0,*49
1485774041.08,27658,12.0,73466.5,0.51,-37.09,-37.45,0,*4F
1485774042.3,27659,12.0,73466.8,0.53,-36.67,-37.09,0,*4D
1485774043.53,27660,11.94,73462.3,0.51,-36.91,-37.45,0,*44
1485774044.78,27661,12.0,73464.0,0.51,-37.21,-37.45,0,*4F
1485774045.99,27662,11.94,73468.5,0.53,-37.57,-37.93,0,*44
1485774047.23,27663,12.0,73470.5,0.51,-37.57,-37.93,0,*47
1485774048.47,27664,12.0,73464.0,0.51,-38.11,-38.43,0,*4F
1485774049.71,27665,12.0,73466.3,0.47,-37.69,-38.05,0,*4B
1485774050.94,27666,12.0,73464.8,0.45,-37.81,-38.17,0,*4F
1485774052.16,27667,12.0,73460.3,0.45,-37.33,-37.81,0,*47
1485774053.42,27668,11.94,73458.8,0.41,-37.21,-37.69,0,*49
1485774054.62,27669,12.0,73460.0,0.43,-36.73,-37.03,0,*40
1485774055.85,27670,11.94,73464.5,0.43,-36.79,-36.91,0,*48
1485774057.06,27671,12.0,73464.8,0.43,-36.55,-36.79,0,*41
1485774058.31,27672,12.0,73464.5,0.43,-36.91,-37.21,0,*46
1485774059.52,27673,12.0,73464.0,0.43,-36.43,-36.61,0,*4D
1485774060.74,27674,11.94,73458.0,0.45,-37.45,-37.81,0,*44
1485774061.98,27675,12.0,73458.0,0.41,-37.33,-37.69,0,*46
1485774063.24,27676,12.0,73466.0,0.41,-37.39,-37.69,0,*4F
1485774064.5,27677,11.94,73470.3,0.41,-37.21,-37.69,0,*47
1485774065.69,27678,12.0,73472.8,0.43,-37.15,-37.57,0,*40
1485774066.93,27679,12.0,73478.0,0.41,-37.51,-37.87,0,*4E
1485774068.17,27680,12.0,73476.8,0.41,-36.79,-36.97,0,*43
1485774069.38,27681,12.0,73476.8,0.43,-37.03,-37.39,0,*49
1485774070.6,27682,11.94,73472.0,0.39,-37.09,-37.45,0,*46
1485774071.81,27683,12.0,73472.5,0.39,-37.09,-37.45,0,*47
1485774073.03,27684,12.0,73470.8,0.41,-37.33,-37.87,0,*48
1485774074.28,27685,12.0,73474.3,0.39,-37.21,-37.63,0,*4F
1485774075.53,27686,12.0,73474.8,0.37,-37.27,-37.51,0,*45
1485774076.75,27687,12.0,73472.8,0.39,-37.03,-37.39,0,*42
1485774078.02,27688,11.94,73470.3,0.37,-37.09,-37.51,0,*47
1485774079.26,27689,12.0,73466.0,0.37,-37.27,-37.69,0,*41
1485774080.53,27690,12.0,73462.3,0.37,-37.51,-37.99,0,*47
1485774081.76,27691,12.0,73460.8,0.37,-37.45,-37.69,0,*4C
1485774082.99,27692,12.0,73460.8,0.35,-37.15,-37.63,0,*42
1485774084.24,27693,12.0,73464.8,0.33,-37.21,-37.57,0,*45
1485774085.44,27694,12.0,73464.8,0.35,-36.85,-37.15,0,*4D
1485774086.66,27695,12.0,73466.0,0.35,-37.33,-37.81,0,*4D
1485774087.91,27696,12.0,73468.3,0.33,-37.75,-38.23,0,*4D
1485774089.13,27697,12.0,73468.5,0.35,-37.33,-37.81,0,*4F
1485774090.4,27698,12.0,73462.0,0.33,-37.09,-37.39,0,*4C
1485774091.62,27699,12.0,73464.0,0.33,-37.15,-37.57,0,*48
1485774092.84,27700,12.0,73460.8,0.33,-36.97,-37.15,0,*44
1485774094.12,27701,12.0,73460.5,0.29,-37.21,-37.63,0,*43
1485774095.36,27702,12.0,73456.5,0.31,-37.51,-37.93,0,*41
1485774096.61,27703,11.94,73462.3,0.31,-37.63,-38.11,0,*44
1485774097.83,27704,12.0,73462.3,0.31,-37.51,-37.87,0,*42
1485774099.07,27705,12.0,73462.5,0.29,-37.45,-37.93,0,*4A
1485774100.32,27706,11.94,73456.0,0.29,-37.45,-37.81,0,*4A
1485774101.54,27707,12.0,73464.8,0.27,-37.21,-37.45,0,*4F
1485774102.73,27708,12.0,73466.5,0.27,-37.27,-37.75,0,*45
1485774103.96,27709,12.0,73462.8,0.23,-36.37,-36.73,0,*47
1485774105.15,27710,12.0,73466.5,0.27,-36.97,-37.45,0,*45
1485774106.37,27711,12.0,73460.0,0.23,-37.09,-37.45,0,*46
1485774107.56,27712,12.0,73460.3,0.27,-37.45,-37.75,0,*4A
1485774108.82,27713,12.0,73462.0,0.23,-37.51,-37.81,0,*41
1485774110.04,27714,12.0,73464.0,0.27,-36.85,-37.21,0,*40
1485774111.28,27715,12.0,73466.3,0.23,-36.13,-36.37,0,*4C
1485774112.5,27716,12.0,73474.5,0.27,-36.01,-36.13,0,*4E
1485774113.72,27717,12.0,73472.3,0.23,-36.43,-36.79,0,*41
1485774114.95,27718,11.94,73468.5,0.27,-36.97,-37.21,0,*4F
1485774116.2,27719,12.0,73464.5,0.23,-37.51,-37.81,0,*4B
1485774117.4,27720,12.0,73464.3,0.23,-36.85,-37.15,0,*44
1485774118.6,27721,12.0,73458.5,0.23,-37.87,-38.35,0,*4B
1485774119.82,27722,12.0,73458.3,0.27,-37.45,-37.93,0,*41
1485774121.07,27723,12.0,73458.5,0.21,-36.91,-37.15,0,*40
1485774122.32,27724,12.0,73456.5,0.21,-36.43,-36.61,0,*4A
1485774123.56,27725,12.0,73464.3,0.21,-36.91,-37.27,0,*47
1485774124.78,27726,12.0,73464.0,0.21,-37.33,-37.57,0,*4A
1485774126.02,27727,12.0,73458.3,0.23,-37.69,-37.69,0,*4B
1485774127.22,27728,12.0,73464.3,0.19,-36.73,-36.97,0,*47
1485774128.47,27729,12.0,73464.5,0.21,-37.51,-37.75,0,*41
1485774129.73,27730,12.0,73470.8,0.21,-36.37,-36.79,0,*45
1485774131.01,27731,12.0,73466.3,0.21,-36.25,-36.61,0,*4E
1485774132.27,27732,12.0,73464.3,0.21,-36.79,-37.09,0,*4B
1485774133.49,27733,12.0,73460.8,0.19,-36.61,-36.97,0,*4E
1485774134.75,27734,12.0,73468.8,0.21,-35.77,-35.95,0,*47
1485774136.02,27735,12.0,73468.8,0.21,-35.83,-36.13,0,*40
1485774137.27,27736,12.0,73462.5,0.21,-36.91,-37.27,0,*45
1485774138.51,27737,12.0,73456.3,0.19,-36.37,-36.79,0,*49
1485774139.78,27738,12.0,73460.0,0.21,-36.91,-37.09,0,*47
1485774141.0,27739,12.0,73462.3,0.23,-36.67,-36.91,0,*4D
1485774142.25,27740,12.0,73462.8,0.21,-36.43,-36.79,0,*41
1485774143.49,27741,12.0,73460.0,0.21,-36.79,-36.97,0,*49
1485774144.73,27742,12.0,73472.5,0.21,-36.73,-36.91,0,*46
1485774145.95,27743,12.0,73470.5,0.21,-36.19,-36.43,0,*44
1485774147.18,27744,12.0,73470.8,0.23,-35.77,-36.13,0,*4F
1485774148.4,27745,12.0,73466.8,0.23,-37.03,-37.21,0,*4F
1485774149.64,27746,12.0,73466.3,0.21,-36.43,-36.79,0,*47
1485774150.87,27747,12.0,73468.3,0.21,-36.73,-36.97,0,*45
1485774152.13,27748,12.0,73470.3,0.21,-36.79,-36.91,0,*46
1485774153.38,27749,12.0,73464.3,0.21,-36.55,-36.91,0,*49
1485774154.59,27750,12.0,73474.0,0.19,-36.79,-37.27,0,*48
1485774155.84,27751,12.0,73470.5,0.21,-35.59,-35.83,0,*4F
1485774157.07,27752,12.0,73476.5,0.21,-35.01,-35.13,0,*48
1485774158.31,27753,12.0,73470.5,0.27,-35.53,-35.95,0,*46
1485774159.56,27754,12.0,73468.3,0.23,-36.49,-36.91,0,*4A
1485774160.78,27755,12.0,73468.5,0.23,-35.95,-36.19,0,*49
1485774162.0,27756,12.0,73470.5,0.27,-35.17,-35.53,0,*49
1485774163.2,27757,12.0,73470.5,0.27,-35.29,-35.47,0,*40
1485774164.44,27758,12.0,73478.3,0.27,-35.65,-35.83,0,*4F
1485774165.67,27759,12.0,73474.5,0.23,-36.31,-36.61,0,*47
1485774166.89,27760,11.94,73466.0,0.27,-36.31,-36.49,0,*43
1485774168.08,27761,12.0,73474.3,0.27,-35.71,-35.71,0,*4D
1485774169.3,27762,12.0,73474.5,0.27,-35.17,-35.53,0,*4E
1485774170.55,27763,12.0,73478.0,0.29,-35.29,-35.53,0,*4C
1485774171.8,27764,12.0,73480.5,0.29,-35.65,-35.89,0,*44
1485774173.03,27765,12.0,73476.8,0.31,-35.41,-35.65,0,*48
1485774174.27,27766,12.0,73470.8,0.29,-35.47,-35.65,0,*44
1485774175.5,27767,12.0,73470.5,0.29,-35.01,-35.29,0,*4F
1485774176.72,27768,12.0,73472.0,0.31,-34.89,-35.23,0,*42
1485774177.99,27769,12.0,73472.5,0.33,-34.95,-35.41,0,*48
1485774179.22,27770,11.94,73468.8,0.33,-35.77,-36.01,0,*4A
1485774180.43,27771,12.0,73466.5,0.33,-35.29,-35.59,0,*4E
1485774181.65,27772,12.0,73474.0,0.35,-35.17,-35.41,0,*4F
1485774182.89,27773,12.0,73472.5,0.35,-34.65,-35.01,0,*4E
1485774184.11,27774,12.0,73466.8,0.35,-34.65,-34.89,0,*48
1485774185.31,27775,12.0,73464.0,0.35,-34.41,-34.77,0,*4E
1485774186.57,27776,12.0,73466.0,0.37,-35.23,-35.41,0,*4E
1485774187.8,27777,12.0,73460.3,0.39,-35.01,-35.35,0,*42
1485774189.02,27778,12.0,73464.8,0.39,-34.59,-34.83,0,*4D
1485774190.21,27779,12.0,73466.3,0.39,-34.41,-34.77,0,*4E
1485774191.43,27780,12.0,73470.3,0.39,-34.83,-35.13,0,*45
1485774192.62,27781,12.0,73470.0,0.43,-35.13,-35.47,0,*40
1485774193.86,27782,12.0,73466.0,0.41,-35.41,-35.59,0,*49
1485774195.07,27783,12.0,73460.5,0.41,-35.47,-35.59,0,*4E
1485774196.31,27784,12.0,73460.8,0.41,-34.65,-34.77,0,*45
1485774197.51,27785,12.0,73464.5,0.43,-34.47,-34.71,0,*40
1485774198.72,27786,12.0,73466.0,0.43,-35.23,-35.59,0,*4B
1485774199.93,27787,12.0,73464.8,0.45,-35.53,-35.71,0,*41
1485774201.15,27788,12.0,73464.5,0.45,-35.17,-35.41,0,*4D
1485774202.37,27789,12.0,73468.3,0.45,-35.01,-35.23,0,*4F
1485774203.62,27790,12.0,73462.8,0.47,-34.31,-34.59,0,*4B
1485774204.84,27791,12.0,73466.5,0.47,-34.47,-34.71,0,*41
1485774206.08,27792,12.0,73468.0,0.47,-35.41,-35.59,0,*4E
1485774207.34,27793,12.0,73470.3,0.47,-35.53,-35.83,0,*4B
1485774208.6,27794,12.0,73472.0,0.47,-34.47,-34.65,0,*41
1485774209.85,27795,12.0,73468.0,0.47,-34.65,-35.01,0,*43
1485774211.12,27796,12.0,73466.3,0.47,-35.07,-35.23,0,*45
1485774212.39,27797,12.0,73464.5,0.47,-35.35,-35.53,0,*42
1485774213.64,27798,12.0,73472.3,0.51,-35.65,-35.89,0,*48
1485774214.89,27799,12.0,73466.5,0.51,-35.77,-36.25,0,*4F
1485774216.15,27800,12.0,73468.5,0.51,-36.25,-36.49,0,*4E
1485774217.41,27801,12.0,73468.8,0.47,-35.71,-35.95,0,*48
1485774218.64,27802,12.0,73466.8,0.51,-35.53,-35.71,0,*46
1485774219.86,27803,12.0,73466.8,0.51,-35.47,-35.71,0,*42
1485774221.08,27804,12.0,73464.5,0.51,-35.29,-35.47,0,*48
1485774222.32,27805,12.0,73464.8,0.51,-35.71,-36.13,0,*46
1485774223.57,27806,12.0,73462.3,0.51,-35.77,-36.13,0,*43
1485774224.81,27807,12.0,73468.5,0.51,-35.89,-36.25,0,*46
1485774226.05,27808,12.0,73472.8,0.51,-35.47,-35.65,0,*4C
1485774227.28,27809,12.0,73472.8,0.53,-34.95,-35.29,0,*49
1485774228.53,27810,12.0,73468.5,0.51,-34.53,-34.77,0,*43
1485774229.74,27811,12.0,73476.8,0.53,-35.29,-35.65,0,*4E
1485774230.93,27812,12.0,73470.5,0.53,-35.29,-35.47,0,*4D
1485774232.18,27813,12.0,73470.0,0.53,-34.65,-34.95,0,*4B
1485774233.39,27814,12.0,73464.5,0.53,-35.13,-35.35,0,*47
1485774234.61,27815,12.0,73464.8,0.53,-34.59,-34.95,0,*42
1485774235.83,27816,12.0,73470.3,0.53,-34.95,-35.17,0,*4A
1485774237.05,27817,12.0,73470.3,0.55,-34.47,-34.89,0,*44
1485774238.29,27818,12.0,73468.0,0.55,-34.35,-34.71,0,*49
1485774239.51,27819,12.0,73468.8,0.57,-34.95,-35.13,0,*45
1485774240.73,27820,12.0,73468.5,0.57,-34.53,-34.77,0,*46
1485774241.97,27821,12.0,73472.3,0.57,-34.95,-35.23,0,*4D
1485774243.16,27822,12.0,73470.5,0.57,-34.77,-35.13,0,*41
1485774244.38,27823,12.0,73468.8,0.57,-34.53,-34.71,0,*43
1485774245.62,27824,12.0,73470.5,0.59,-34.53,-34.89,0,*4D
1485774246.84,27825,12.0,73474.0,0.61,-34.65,-35.13,0,*40
1485774248.06,27826,12.0,73474.8,0.61,-35.35,-35.77,0,*45
1485774249.3,27827,12.0,73470.5,0.59,-35.41,-35.77,0,*4C
1485774250.55,27828,12.0,73476.8,0.61,-34.95,-35.35,0,*46
1485774251.82,27829,12.0,73472.0,0.59,-35.53,-35.95,0,*4D
1485774253.06,27830,12.0,73476.0,0.59,-36.49,-36.67,0,*43
1485774254.28,27831,12.0,73478.5,0.61,-35.07,-35.01,0,*43
1485774255.48,27832,12.0,73476.8,0.61,-34.77,-35.01,0,*46
1485774256.71,27833,12.0,73476.5,0.61,-34.47,-34.95,0,*48
1485774257.92,27834,12.0,73478.3,0.61,-34.19,-34.41,0,*4D
1485774259.16,27835,12.0,73480.8,0.63,-34.41,-34.65,0,*45
1485774260.39,27836,12.0,73482.3,0.63,-34.77,-35.01,0,*40
1485774261.63,27837,12.0,73484.0,0.63,-35.53,-35.77,0,*47
1485774262.81,27838,12.0,73486.5,0.65,-35.71,-36.07,0,*4A
1485774264.03,27839,12.0,73486.3,0.63,-35.47,-35.71,0,*4A
1485774265.26,27840,12.0,73482.3,0.63,-35.35,-35.59,0,*4B
1485774266.45,27841,12.0,73482.8,0.65,-35.29,-35.71,0,*4B
1485774267.66,27842,12.0,73490.3,0.65,-35.53,-35.89,0,*42
1485774268.91,27843,12.0,73484.5,0.63,-35.59,-35.95,0,*42
1485774270.15,27844,12.0,73488.3,0.63,-35.77,-36.13,0,*44
1485774271.39,27845,12.0,73488.8,0.63,-35.53,-35.89,0,*43
1485774272.63,27846,12.0,73488.0,0.63,-35.89,-36.13,0,*47
1485774273.9,27847,12.0,73480.8,0.63,-36.61,-36.91,0,*49
1485774275.11,27848,12.0,73482.0,0.63,-37.03,-37.45,0,*4B
1485774276.35,27849,12.0,73484.8,0.61,-36.61,-36.91,0,*45
1485774277.56,27850,12.0,73488.5,0.61,-35.95,-36.07,0,*4A
1485774278.76,27851,12.0,73486.5,0.61,-35.01,-35.17,0,*44
1485774279.98,27852,12.0,73480.5,0.61,-34.95,-35.17,0,*4B
1485774281.17,27853,12.0,73482.5,0.61,-35.17,-35.47,0,*44
1485774282.36,27854,12.0,73484.3,0.61,-35.17,-35.47,0,*43
1485774283.58,27855,12.0,73488.3,0.61,-34.95,-35.29,0,*41
1485774284.79,27856,12.0,73480.5,0.65,-35.47,-35.65,0,*40
1485774286.03,27857,12.0,73486.8,0.63,-36.31,-36.49,0,*48
1485774287.25,27858,12.0,73480.5,0.63,-36.07,-36.31,0,*4D
1485774288.47,27859,12.0,73478.8,0.63,-35.71,-36.07,0,*4B
1485774289.68,27860,12.0,73480.3,0.63,-35.29,-35.59,0,*44
1485774290.92,27861,12.0,73478.8,0.63,-35.77,-36.13,0,*43
1485774292.14,27862,12.0,73480.0,0.63,-36.07,-36.43,0,*41
1485774293.41,27863,12.0,73478.0,0.63,-36.25,-36.49,0,*4A
1485774294.65,27864,12.0,73478.8,0.61,-36.25,-36.49,0,*4F
1485774295.9,27865,12.0,73480.8,0.61,-35.95,-36.25,0,*4C
1485774297.11,27866,12.0,73482.5,0.61,-36.91,-37.27,0,*4B
1485774298.36,27867,12.0,73478.0,0.59,-37.27,-37.63,0,*4D
1485774299.6,27868,12.0,73472.5,0.59,-37.09,-37.45,0,*4A
1485774300.81,27869,12.0,73478.5,0.59,-36.67,-36.97,0,*4C
1485774302.07,27870,12.0,73476.5,0.59,-36.13,-36.49,0,*44
1485774303.31,27871,12.0,73478.8,0.59,-35.59,-35.95,0,*4A
1485774304.56,27872,12.0,73478.0,0.59,-35.77,-36.13,0,*48
1485774305.8,27873,12.0,73476.3,0.59,-35.77,-36.13,0,*49
1485774307.04,27874,12.0,73476.3,0.59,-35.59,-35.95,0,*4F
1485774308.3,27875,12.0,73476.3,0.59,-35.53,-35.83,0,*43
1485774309.52,27876,12.0,73472.5,0.59,-34.89,-35.17,0,*4B
1485774310.73,27877,12.0,73478.3,0.61,-35.47,-35.65,0,*47
1485774311.97,27878,12.0,73476.5,0.59,-36.55,-36.91,0,*4B
1485774313.23,27879,12.0,73472.5,0.59,-36.49,-36.79,0,*41
1485774314.45,27880,12.0,73472.3,0.59,-36.19,-36.55,0,*4C
1485774315.7,27881,12.0,73472.3,0.59,-36.37,-36.55,0,*41
1485774316.89,27882,12.0,73468.8,0.57,-36.43,-36.73,0,*4B
1485774318.11,27883,12.0,73470.3,0.57,-36.25,-36.55,0,*4E
1485774319.33,27884,12.0,73466.5,0.57,-35.71,-36.25,0,*4C
1485774320.51,27885,12.0,73470.5,0.57,-35.13,-35.47,0,*4E
1485774321.73,27886,12.0,73468.5,0.61,-35.17,-35.53,0,*49
1485774322.97,27887,12.0,73468.0,0.61,-35.23,-35.65,0,*4A
1485774324.17,27888,12.0,73474.5,0.61,-35.47,-35.89,0,*45
1485774325.43,27889,12.0,73468.5,0.59,-36.49,-36.91,0,*48
1485774326.65,27890,12.0,73464.0,0.59,-36.73,-37.15,0,*44
1485774327.87,27891,12.0,73468.3,0.57,-37.21,-37.75,0,*4B
1485774329.11,27892,12.0,73462.5,0.57,-36.79,-37.21,0,*45
1485774330.35,27893,12.0,73460.0,0.55,-35.83,-36.19,0,*4A
1485774331.59,27894,12.0,73464.3,0.55,-36.61,-37.15,0,*4F
1485774332.8,27895,12.0,73466.0,0.55,-36.85,-37.33,0,*40
1485774334.02,27896,12.0,73466.3,0.55,-36.55,-36.85,0,*42
1485774335.26,27897,12.0,73466.0,0.55,-37.15,-37.51,0,*4E
1485774336.48,27898,12.0,73470.3,0.53,-36.67,-37.09,0,*4E
1485774337.69,27899,12.0,73466.5,0.53,-35.89,-36.13,0,*46
1485774338.89,27900,12.0,73466.0,0.53,-35.53,-36.07,0,*45
1485774340.12,27901,12.0,73466.5,0.53,-36.13,-36.49,0,*49
1485774341.33,27902,12.0,73464.8,0.53,-35.65,-36.07,0,*42
1485774342.59,27903,12.0,73464.3,0.55,-35.41,-35.83,0,*4C
1485774343.84,27904,12.0,73466.8,0.55,-35.29,-35.83,0,*45
1485774345.05,27905,12.0,73470.3,0.57,-35.41,-35.71,0,*45
1485774346.26,27906,12.0,73468.0,0.55,-35.47,-35.71,0,*42
1485774347.48,27907,12.0,73470.5,0.55,-35.29,-35.59,0,*41
1485774348.71,27908,12.0,73470.8,0.59,-35.23,-35.59,0,*48
1485774349.93,27909,12.0,73468.5,0.55,-35.71,-36.19,0,*45
1485774351.17,27910,12.0,73470.8,0.55,-35.13,-35.41,0,*47
1485774352.41,27911,12.0,73468.3,0.55,-35.07,-35.47,0,*45
1485774353.63,27912,12.0,73468.3,0.57,-34.95,-35.29,0,*46
1485774354.84,27913,12.0,73466.0,0.57,-34.89,-35.23,0,*40
1485774356.09,27914,12.0,73470.5,0.59,-35.35,-35.77,0,*4E
1485774357.33,27915,12.0,73468.8,0.61,-35.23,-35.35,0,*45
1485774358.53,27916,12.0,73470.8,0.61,-34.77,-35.01,0,*41
1485774359.75,27917,12.0,73474.5,0.61,-34.65,-35.01,0,*43
1485774360.94,27918,12.0,73470.8,0.61,-34.41,-34.77,0,*4A
1485774362.18,27919,12.0,73472.8,0.65,-34.19,-34.35,0,*44
1485774363.45,27920,12.0,73468.3,0.63,-34.95,-35.35,0,*4D
1485774364.67,27921,12.0,73464.5,0.65,-34.59,-34.95,0,*41
1485774365.88,27922,12.0,73470.5,0.65,-35.13,-35.41,0,*45
1485774367.1,27923,12.0,73468.0,0.65,-34.71,-35.07,0,*43
1485774368.34,27924,12.0,73470.3,0.65,-35.07,-35.41,0,*46
1485774369.55,27925,12.0,73468.0,0.65,-34.89,-35.07,0,*42
1485774370.77,27926,12.0,73468.5,0.65,-35.29,-35.65,0,*4E
1485774372.04,27927,12.0,73470.3,0.67,-34.95,-35.41,0,*4D
1485774373.29,27928,12.0,73472.3,0.67,-35.07,-35.47,0,*4E
1485774374.5,27929,12.0,73472.0,0.69,-35.35,-35.59,0,*4F
1485774375.72,27930,12.0,73470.3,0.69,-34.71,-35.07,0,*4D
1485774376.97,27931,12.0,73470.3,0.67,-34.35,-34.77,0,*44
1485774378.16,27932,12.0,73472.8,0.69,-35.17,-35.47,0,*4A
1485774379.38,27933,12.0,73474.0,0.69,-35.47,-35.83,0,*46
1485774380.58,27934,12.0,73470.0,0.69,-34.71,-35.01,0,*4F
1485774381.79,27935,12.0,73474.5,0.69,-35.23,-35.59,0,*45
1485774383.04,27936,12.0,73476.3,0.69,-35.65,-35.95,0,*44
1485774384.26,27937,12.0,73472.5,0.69,-35.35,-35.77,0,*4C
1485774385.47,27938,12.0,73474.3,0.69,-35.65,-36.01,0,*44
1485774386.72,27939,12.0,73474.3,0.69,-35.83,-36.13,0,*4E
1485774387.94,27940,12.0,73476.0,0.69,-35.07,-35.47,0,*4E
1485774389.16,27941,12.0,73472.0,0.69,-34.53,-35.01,0,*4D
1485774390.41,27942,12.0,73476.8,0.69,-34.31,-34.53,0,*4C
1485774391.62,27943,12.0,73482.5,0.73,-34.25,-34.65,0,*46
1485774392.86,27944,12.0,73478.8,0.77,-34.71,-34.95,0,*4B
1485774394.06,27945,12.0,73478.8,0.77,-34.25,-34.71,0,*41
1485774395.29,27946,12.0,73482.5,0.77,-35.07,-35.29,0,*4F
1485774396.52,27947,12.0,73478.3,0.77,-34.77,-34.95,0,*4E
1485774397.75,27948,12.0,73478.5,0.79,-34.41,-34.77,0,*46
1485774399.01,27949,12.0,73480.3,0.79,-34.35,-34.77,0,*44
1485774400.23,27950,12.0,73482.8,0.79,-34.41,-34.77,0,*4F
1485774401.47,27951,12.0,73482.5,0.79,-34.59,-34.89,0,*46
1485774402.69,27952,12.0,73482.3,0.81,-34.07,-34.31,0,*4A
1485774403.95,27953,12.0,73482.0,0.81,-34.31,-34.65,0,*4F
1485774405.21,27954,12.0,73482.5,0.81,-34.65,-34.83,0,*41
1485774406.49,27955,12.0,73478.5,0.83,-34.31,-34.53,0,*4E
1485774407.77,27956,12.0,73480.8,0.83,-34.53,-34.83,0,*44
1485774409.0,27957,12.0,73482.3,0.85,-34.13,-34.31,0,*4E
1485774410.2,27958,12.0,73476.5,0.85,-34.07,-34.41,0,*43
1485774411.45,27959,12.0,73482.0,0.87,-35.13,-35.41,0,*45
1485774412.71,27960,12.0,73480.5,0.87,-35.59,-35.95,0,*48
1485774413.96,27961,12.0,73480.5,0.87,-35.01,-35.35,0,*4E
1485774415.17,27962,12.0,73484.3,0.89,-34.59,-34.77,0,*48
1485774416.43,27963,12.0,73486.8,0.87,-34.31,-34.59,0,*45
1485774417.66,27964,12.0,73484.5,0.87,-34.59,-34.77,0,*40
1485774418.86,27965,12.0,73480.3,0.89,-34.89,-35.17,0,*45
1485774420.11,27966,12.0,73480.8,0.87,-35.35,-35.59,0,*44
1485774421.37,27967,12.0,73476.0,0.87,-34.65,-35.01,0,*4C
1485774422.65,27968,12.0,73476.8,0.87,-34.65,-34.95,0,*4F
1485774423.93,27969,12.0,73476.3,0.87,-34.31,-34.53,0,*45
1485774425.17,27970,12.0,73478.3,0.89,-35.07,-35.29,0,*4B
1485774426.37,27971,12.0,73476.0,0.89,-35.17,-35.47,0,*43
1485774427.62,27972,12.0,73480.0,0.89,-35.07,-35.35,0,*44
1485774428.88,27973,12.0,73478.3,0.87,-34.95,-35.13,0,*45
1485774430.08,27974,12.0,73482.5,0.89,-34.71,-34.89,0,*44
1485774431.29,27975,12.0,73474.8,0.89,-34.89,-35.13,0,*40
1485774432.53,27976,12.0,73478.3,0.91,-35.01,-35.29,0,*42
1485774433.8,27977,12.0,73478.3,0.91,-35.23,-35.65,0,*4B
1485774435.06,27978,12.0,73476.8,0.91,-36.01,-36.25,0,*40
1485774436.31,27979,12.0,73472.8,0.89,-35.65,-35.83,0,*46
1485774437.54,27980,12.0,73474.5,0.91,-35.29,-35.59,0,*46
1485774438.77,27981,12.0,73474.5,0.87,-35.59,-35.77,0,*4B
1485774439.97,27982,12.0,73478.5,0.89,-35.89,-36.07,0,*4F
1485774441.17,27983,12.0,73478.8,0.89,-35.89,-36.19,0,*41
1485774442.37,27984,12.0,73476.0,0.89,-36.01,-36.31,0,*4F
1485774443.64,27985,12.0,73468.3,0.87,-36.13,-36.49,0,*4C
1485774444.9,27986,12.0,73474.8,0.87,-36.67,-36.91,0,*49
1485774446.15,27987,12.0,73472.3,0.87,-36.37,-36.73,0,*41
1485774447.35,27988,12.0,73474.0,0.85,-36.07,-36.31,0,*49
1485774448.61,27989,12.0,73472.8,0.83,-36.19,-36.37,0,*47
1485774449.84,27990,12.0,73474.3,0.83,-36.31,-36.67,0,*40
1485774451.08,27991,12.0,73470.5,0.83,-36.31,-36.55,0,*40
1485774452.31,27992,12.0,73472.5,0.83,-36.19,-36.43,0,*4E
1485774453.59,27993,12.0,73476.5,0.83,-36.37,-36.79,0,*4A
1485774454.84,27994,12.0,73476.5,0.83,-36.43,-36.91,0,*48
1485774456.07,27995,12.0,73474.8,0.83,-36.31,-36.43,0,*43
1485774457.29,27996,12.0,73476.3,0.81,-36.31,-36.55,0,*45
1485774458.53,27997,12.0,73482.3,0.79,-36.19,-36.37,0,*4D
1485774459.81,27998,12.0,73480.0,0.79,-36.25,-36.49,0,*44
1485774461.07,27999,12.0,73482.8,0.79,-36.37,-36.67,0,*4A
1485774462.35,28000,12.0,73482.5,0.79,-36.37,-36.61,0,*4A
1485774463.6,28001,12.0,73490.8,0.79,-37.33,-37.51,0,*4C
1485774464.85,28002,12.0,73490.5,0.79,-37.03,-37.39,0,*42
1485774466.08,28003,12.0,73480.5,0.77,-36.61,-36.97,0,*4D
1485774467.32,28004,12.0,73480.3,0.73,-36.25,-36.49,0,*4D
1485774468.55,28005,12.0,73476.3,0.77,-36.01,-36.25,0,*44
1485774469.77,28006,12.0,73478.0,0.77,-36.07,-36.37,0,*42
1485774470.98,28007,12.0,73476.8,0.73,-35.89,-36.13,0,*44
1485774472.19,28008,12.0,73478.0,0.77,-35.71,-36.01,0,*4B
1485774473.44,28009,12.0,73476.8,0.77,-36.25,-36.61,0,*4E
1485774474.63,28010,12.0,73472.8,0.73,-36.43,-36.73,0,*41
1485774475.84,28011,12.0,73470.3,0.73,-36.91,-37.27,0,*4F
1485774477.09,28012,12.0,73470.8,0.73,-37.39,-37.63,0,*4F
1485774478.31,28013,12.0,73468.5,0.69,-37.81,-37.87,0,*4C
1485774479.58,28014,12.0,73470.0,0.67,-37.69,-37.93,0,*46
1485774480.79,28015,12.0,73472.5,0.69,-37.75,-38.11,0,*41
1485774482.03,28016,12.0,73464.5,0.67,-37.39,-37.75,0,*49
1485774483.25,28017,12.0,73464.3,0.65,-37.21,-37.57,0,*43
1485774484.47,28018,12.0,73466.0,0.65,-37.15,-37.51,0,*4D
1485774485.69,28019,12.0,73468.0,0.65,-37.09,-37.57,0,*47
1485774486.92,28020,12.0,73462.5,0.63,-38.23,-38.73,0,*45
1485774488.13,28021,12.0,73470.8,0.61,-38.43,-38.91,0,*4C
1485774489.35,28022,12.0,73464.0,0.59,-38.05,-38.43,0,*49
1485774490.62,28023,12.0,73464.3,0.59,-37.51,-37.81,0,*47
1485774491.88,28024,12.0,73468.0,0.59,-37.63,-37.81,0,*41
1485774493.07,28025,12.0,73466.5,0.57,-37.87,-38.05,0,*47
1485774494.31,28026,12.0,73470.3,0.57,-37.93,-38.49,0,*49
1485774495.58,28027,12.0,73470.8,0.55,-38.11,-38.49,0,*4F
1485774496.79,28028,12.0,73466.0,0.53,-37.57,-37.81,0,*40
1485774498.04,28029,12.0,73468.5,0.51,-37.75,-37.99,0,*4A
1485774499.28,28030,12.0,73464.3,0.53,-37.63,-37.99,0,*47
1485774500.52,28031,12.0,73466.3,0.51,-37.39,-37.75,0,*49
1485774501.77,28032,12.0,73464.0,0.51,-37.09,-37.57,0,*49
1485774503.01,28033,12.0,73466.3,0.51,-37.21,-37.45,0,*41
1485774504.28,28034,12.0,73464.5,0.47,-37.09,-37.51,0,*4E
1485774505.51,28035,12.0,73458.5,0.45,-36.85,-37.09,0,*45
1485774506.73,28036,12.0,73456.5,0.45,-37.33,-37.81,0,*4A
1485774507.93,28037,12.0,73462.5,0.45,-36.85,-37.15,0,*4A
1485774509.15,28038,12.0,73464.3,0.45,-36.37,-36.67,0,*48